Kankakee, IL

7:45 AM CDT on June 25, 2017 (GMT -0500)
Greater Kankakee

Weather History for KIKK - October, 2012

Change the Weather History Date:

Saturday, October 27, 2012

  Actual Average Record
Temperature  
Mean Temperature 43 °F -  
Max Temperature 50 °F 60 °F 77 °F (2014)
Min Temperature 36 °F 37 °F 25 °F (1988)
Degree Days  
Heating Degree Days 22    
Moisture  
Dew Point 32 °F    
Average Humidity 69    
Maximum Humidity 81    
Minimum Humidity 50    
Precipitation  
Precipitation 0.00 in - - ()
Sea Level Pressure  
Sea Level Pressure 30.27 in    
Wind  
Wind Speed 8 mph (North)    
Max Wind Speed 15 mph    
Max Gust Speed 21 mph    
Visibility 10 miles    
Events      
Averages and records for this station are not official NWS values.
T = Trace of Precipitation, MM = Missing Value Source: NWS Daily Summary

Daily Weather History Graph

Daily Weather History Graph

Search for Another Location

Airport or City:

Trip Planner

Search our weather history database for the weather conditions in past years. The results will help you decide how hot, cold, wet, or windy it might be!

Date:

Astronomy

Oct. 27, 2012 Rise Set
Actual Time 7:17 AM CDT 5:52 PM CDT
Civil Twilight 6:48 AM CDT 6:21 PM CDT
Nautical Twilight 6:16 AM CDT 6:53 PM CDT
Astronomical Twilight 5:44 AM CDT 7:25 PM CDT
Moon 4:39 PM CDT (10/27) 5:11 AM CDT (10/27)
Length of Visible Light 11h 32m
Length of Day
10h 35m
Waxing Gibbous, 96% of the Moon is Illuminated
Oct 27
Waxing Gibbous
Oct 29
Full
Nov 6
Last Quarter
Nov 13
New
Nov 20
First Quarter

Hourly Weather History & Observations

Time (CDT) Temp. Windchill Dew Point Humidity Pressure Visibility Wind Dir Wind Speed Gust Speed Precip Events Conditions
12:15 AM 39.9 °F 36.7 °F 32.2 °F 74% 30.29 in 10.0 mi NW 4.6 mph - N/A   Clear
12:35 AM 39.6 °F 36.3 °F 32.0 °F 74% 30.29 in 10.0 mi NW 4.6 mph - N/A   Clear
12:55 AM 39.0 °F 36.8 °F 32.0 °F 76% 30.28 in 10.0 mi NW 3.5 mph - N/A   Clear
1:15 AM 39.0 °F 34.0 °F 32.0 °F 76% 30.27 in 10.0 mi NNW 6.9 mph - N/A   Clear
1:35 AM 40.1 °F 34.7 °F 32.0 °F 73% 30.27 in 10.0 mi NNW 8.1 mph - N/A   Scattered Clouds
1:55 AM 40.1 °F 34.7 °F 31.6 °F 72% 30.27 in 10.0 mi NNW 8.1 mph - N/A   Clear
2:15 AM 39.6 °F 34.7 °F 31.6 °F 73% 30.27 in 10.0 mi NNW 6.9 mph - N/A   Clear
2:35 AM 39.2 °F 33.6 °F 31.6 °F 74% 30.27 in 10.0 mi NNW 8.1 mph - N/A   Clear
2:55 AM 39.2 °F 32.5 °F 31.5 °F 74% 30.27 in 10.0 mi NNW 10.4 mph - N/A   Clear
3:35 AM 38.3 °F 31.9 °F 31.5 °F 76% 30.26 in 10.0 mi NNW 9.2 mph - N/A   Clear
3:55 AM 37.8 °F 31.3 °F 31.6 °F 79% 30.27 in 10.0 mi NNW 9.2 mph - N/A   Clear
4:15 AM 37.4 °F 30.8 °F 31.6 °F 80% 30.27 in 10.0 mi NNW 9.2 mph - N/A   Clear
4:35 AM 37.2 °F 30.0 °F 31.6 °F 80% 30.27 in 10.0 mi NNW 10.4 mph 16.1 mph N/A   Clear
4:55 AM 36.9 °F 29.1 °F 31.6 °F 81% 30.27 in 10.0 mi NNW 11.5 mph 16.1 mph N/A   Clear
5:15 AM 36.9 °F 30.1 °F 31.6 °F 81% 30.27 in 10.0 mi NNW 9.2 mph 17.3 mph N/A   Clear
5:35 AM 36.9 °F 29.1 °F 31.5 °F 81% 30.27 in 10.0 mi NNW 11.5 mph 17.3 mph N/A   Clear
5:55 AM 36.7 °F 30.5 °F 31.1 °F 80% 30.28 in 10.0 mi NNW 8.1 mph - N/A   Clear
6:15 AM 36.5 °F 30.3 °F 30.9 °F 80% 30.27 in 10.0 mi NNW 8.1 mph 16.1 mph N/A   Clear
6:55 AM 36.0 °F 28.5 °F 30.2 °F 80% 30.29 in 10.0 mi NNW 10.4 mph - N/A   Clear
7:15 AM 36.1 °F 30.6 °F 30.6 °F 80% 30.30 in 10.0 mi NNW 6.9 mph - N/A   Mostly Cloudy
7:35 AM 36.5 °F 30.3 °F 30.6 °F 79% 30.30 in 10.0 mi NNW 8.1 mph - N/A   Overcast
7:55 AM 37.0 °F 30.4 °F 31.1 °F 79% 30.30 in 10.0 mi NNW 9.2 mph - N/A   Overcast
8:15 AM 37.8 °F 31.8 °F 31.6 °F 79% 30.29 in 10.0 mi North 8.1 mph 16.1 mph N/A   Mostly Cloudy
8:35 AM 38.5 °F 32.1 °F 31.6 °F 76% 30.29 in 10.0 mi NNW 9.2 mph 16.1 mph N/A   Mostly Cloudy
8:55 AM 39.4 °F 33.8 °F 32.0 °F 75% 30.29 in 10.0 mi North 8.1 mph - N/A   Scattered Clouds
9:15 AM 41.0 °F 35.2 °F 32.2 °F 71% 30.29 in 10.0 mi NNW 9.2 mph - N/A   Clear
9:35 AM 41.9 °F 35.4 °F 32.4 °F 69% 30.29 in 10.0 mi NNW 11.5 mph - N/A   Clear
9:55 AM 43.0 °F 37.2 °F 33.1 °F 68% 30.29 in 10.0 mi NNW 10.4 mph 17.3 mph N/A   Clear
10:15 AM 44.6 °F 38.8 °F 33.8 °F 66% 30.29 in 10.0 mi NNW 11.5 mph - N/A   Clear
10:35 AM 44.8 °F 39.0 °F 33.6 °F 65% 30.29 in 10.0 mi NNW 11.5 mph 18.4 mph N/A   Clear
10:55 AM 45.9 °F 41.7 °F 34.0 °F 63% 30.30 in 10.0 mi NW 8.1 mph 16.1 mph N/A   Clear
11:15 AM 46.4 °F 41.5 °F 33.8 °F 62% 30.30 in 10.0 mi North 10.4 mph - N/A   Clear
11:35 AM 47.1 °F - 34.2 °F 61% 30.29 in 10.0 mi North 6.9 mph - N/A   Clear
11:55 AM 48.2 °F - 34.7 °F 60% 30.28 in 10.0 mi North 9.2 mph 17.3 mph N/A   Clear
12:15 PM 48.2 °F - 34.2 °F 58% 30.27 in 10.0 mi North 10.4 mph 20.7 mph N/A   Scattered Clouds
12:35 PM 48.7 °F - 33.8 °F 56% 30.26 in 10.0 mi North 10.4 mph 16.1 mph N/A   Scattered Clouds
12:55 PM 47.5 °F - 33.1 °F 57% 30.26 in 10.0 mi NNE 9.2 mph - N/A   Mostly Cloudy
1:15 PM 49.5 °F - 32.9 °F 53% 30.25 in 10.0 mi North 11.5 mph - N/A   Mostly Cloudy
1:35 PM 49.1 °F - 32.5 °F 53% 30.24 in 10.0 mi North 9.2 mph - N/A   Mostly Cloudy
1:55 PM 48.6 °F - 31.8 °F 52% 30.24 in 10.0 mi North 8.1 mph - N/A   Scattered Clouds
2:15 PM 50.0 °F - 32.0 °F 50% 30.23 in 10.0 mi North 8.1 mph 16.1 mph N/A   Mostly Cloudy
2:35 PM 49.1 °F - 32.2 °F 52% 30.22 in 10.0 mi North 6.9 mph - N/A   Mostly Cloudy
2:55 PM 50.4 °F - 32.7 °F 51% 30.22 in 10.0 mi North 11.5 mph 16.1 mph N/A   Mostly Cloudy
3:15 PM 49.5 °F - 32.5 °F 52% 30.22 in 10.0 mi NNE 12.7 mph 17.3 mph N/A   Mostly Cloudy
3:35 PM 49.3 °F - 32.0 °F 51% 30.22 in 10.0 mi NNE 15.0 mph - N/A   Mostly Cloudy
3:55 PM 48.9 °F - 31.8 °F 52% 30.22 in 10.0 mi North 11.5 mph 18.4 mph N/A   Scattered Clouds
4:15 PM 47.7 °F - 32.2 °F 55% 30.22 in 10.0 mi NNE 11.5 mph 16.1 mph N/A   Scattered Clouds
4:35 PM 47.3 °F - 32.2 °F 56% 30.22 in 10.0 mi NNE 12.7 mph 17.3 mph N/A   Clear
4:55 PM 45.1 °F 39.9 °F 32.4 °F 61% 30.23 in 10.0 mi NNE 10.4 mph - N/A   Clear
5:15 PM 44.1 °F 38.6 °F 32.0 °F 63% 30.24 in 10.0 mi NNE 10.4 mph - N/A   Clear
5:35 PM 43.2 °F 37.9 °F 32.2 °F 65% 30.25 in 10.0 mi NE 9.2 mph - N/A   Clear
5:55 PM 41.9 °F 37.5 °F 32.4 °F 69% 30.26 in 10.0 mi NE 6.9 mph - N/A   Clear
6:15 PM 41.9 °F 36.3 °F 31.8 °F 67% 30.26 in 10.0 mi NNE 9.2 mph - N/A   Clear
6:35 PM 41.0 °F 34.7 °F 31.6 °F 69% 30.27 in 10.0 mi NE 10.4 mph - N/A   Clear
6:55 PM 40.6 °F 34.8 °F 31.3 °F 69% 30.27 in 10.0 mi NE 9.2 mph - N/A   Clear
7:15 PM 40.1 °F 34.7 °F 31.1 °F 70% 30.27 in 10.0 mi NNE 8.1 mph - N/A   Clear
7:35 PM 39.2 °F 33.6 °F 31.1 °F 73% 30.26 in 10.0 mi NNE 8.1 mph - N/A   Clear
7:55 PM 38.7 °F 35.2 °F 31.1 °F 74% 30.27 in 10.0 mi NNE 4.6 mph - N/A   Clear
8:15 PM 38.1 °F 34.6 °F 31.1 °F 76% 30.27 in 10.0 mi North 4.6 mph - N/A   Clear
8:35 PM 38.3 °F 35.9 °F 31.1 °F 75% 30.27 in 10.0 mi North 3.5 mph - N/A   Clear
8:55 PM 38.8 °F 35.4 °F 31.6 °F 75% 30.26 in 10.0 mi North 4.6 mph - N/A   Clear
9:15 PM 39.4 °F 35.2 °F 31.1 °F 72% 30.26 in 10.0 mi North 5.8 mph - N/A   Clear
9:35 PM 41.0 °F 37.1 °F 32.0 °F 70% 30.25 in 10.0 mi North 5.8 mph - N/A   Clear
9:55 PM 40.1 °F 36.1 °F 31.1 °F 70% 30.26 in 10.0 mi North 5.8 mph - N/A   Clear
10:15 PM 39.4 °F 36.1 °F 30.9 °F 72% 30.26 in 10.0 mi North 4.6 mph - N/A   Clear
10:35 PM 39.2 °F 35.9 °F 30.6 °F 71% 30.26 in 10.0 mi NW 4.6 mph - N/A   Clear
10:55 PM 39.2 °F 35.0 °F 30.2 °F 70% 30.26 in 10.0 mi NNW 5.8 mph - N/A   Clear
11:15 PM 37.9 °F 33.5 °F 30.4 °F 74% 30.26 in 10.0 mi NNW 5.8 mph - N/A   Clear
11:35 PM 37.4 °F 32.8 °F 30.6 °F 76% 30.26 in 10.0 mi NW 5.8 mph - N/A   Clear
11:55 PM 37.4 °F 32.8 °F 30.7 °F 77% 30.25 in 10.0 mi NNW 5.8 mph - N/A   Clear